| time (UTC) | temp C | wind direction | speed KPH | gust KPH | rain 1hr cm | rain 24hr cm | rain mn cm | humidity % | barometer mb |
| 20260504193508 | 25 | 252 | 3.2 | 11.3 | 0.00 | 0.00 | 0.00 | 34 | 1014.7 |
| 20260504193026 | 25 | 138 | 1.6 | 11.3 | 0.00 | 0.00 | 0.00 | 33 | 1014.7 |
| 20260504192510 | 25 | 127 | 3.2 | 9.7 | 0.00 | 0.00 | 0.00 | 33 | 1014.9 |
| 20260504192007 | 25 | 204 | 1.6 | 9.7 | 0.00 | 0.00 | 0.00 | 34 | 1015.0 |
| 20260504191507 | 25 | 296 | 3.2 | 9.7 | 0.00 | 0.00 | 0.00 | 35 | 1015.1 |
| 20260504191006 | 24 | 127 | 1.6 | 9.7 | 0.00 | 0.00 | 0.00 | 34 | 1015.0 |
| 20260504190504 | 24 | 261 | 3.2 | 9.7 | 0.00 | 0.00 | 0.00 | 34 | 1015.2 |
| 20260504190016 | 24 | 201 | 1.6 | 9.7 | 0.00 | 0.00 | 0.00 | 35 | 1015.3 |
| 20260504185503 | 25 | 239 | 4.8 | 9.7 | 0.00 | 0.00 | 0.00 | 32 | 1015.3 |
| 20260504185008 | 24 | 241 | 0.0 | 8.0 | 0.00 | 0.00 | 0.00 | 36 | 1015.2 |
| 20260504184519 | 24 | 208 | 1.6 | 4.8 | 0.00 | 0.00 | 0.00 | 36 | 1015.3 |
| 20260504184006 | 24 | 211 | 1.6 | 9.7 | 0.00 | 0.00 | 0.00 | 35 | 1015.5 |
| 20260504183508 | 23 | 289 | 3.2 | 9.7 | 0.00 | 0.00 | 0.00 | 35 | 1015.5 |
| 20260504183022 | 23 | 297 | 3.2 | 11.3 | 0.00 | 0.00 | 0.00 | 36 | 1015.4 |
| 20260504182509 | 23 | 224 | 3.2 | 11.3 | 0.00 | 0.00 | 0.00 | 35 | 1015.5 |
| 20260504182013 | 23 | 217 | 3.2 | 8.0 | 0.00 | 0.00 | 0.00 | 36 | 1015.6 |
| 20260504181534 | 23 | 233 | 1.6 | 8.0 | 0.00 | 0.00 | 0.00 | 36 | 1015.6 |
| 20260504181010 | 23 | 218 | 3.2 | 8.0 | 0.00 | 0.00 | 0.00 | 36 | 1015.5 |
| 20260504180504 | 23 | 209 | 3.2 | 9.7 | 0.00 | 0.00 | 0.00 | 37 | 1015.5 |
| 20260504180017 | 23 | 220 | 3.2 | 9.7 | 0.00 | 0.00 | 0.00 | 36 | 1015.6 |
| 20260504175504 | 23 | 221 | 1.6 | 9.7 | 0.00 | 0.00 | 0.00 | 36 | 1015.6 |
| 20260504175003 | 23 | 311 | 1.6 | 9.7 | 0.00 | 0.00 | 0.00 | 37 | 1015.6 |
| 20260504174518 | 23 | 121 | 1.6 | 6.4 | 0.00 | 0.00 | 0.00 | 37 | 1015.6 |
| 20260504174004 | 22 | 146 | 1.6 | 9.7 | 0.00 | 0.00 | 0.00 | 36 | 1015.8 |
| 20260504173510 | 22 | 284 | 3.2 | 11.3 | 0.00 | 0.00 | 0.00 | 37 | 1015.9 |
| 20260504173022 | 22 | 185 | 3.2 | 11.3 | 0.00 | 0.00 | 0.00 | 37 | 1015.7 |
| 20260504172505 | 22 | 155 | 1.6 | 8.0 | 0.00 | 0.00 | 0.00 | 37 | 1015.7 |
| 20260504172009 | 22 | 261 | 1.6 | 8.0 | 0.00 | 0.00 | 0.00 | 37 | 1015.7 |
| 20260504171530 | 22 | 186 | 3.2 | 11.3 | 0.00 | 0.00 | 0.00 | 36 | 1015.9 |
| 20260504171011 | 22 | 298 | 3.2 | 11.3 | 0.00 | 0.00 | 0.00 | 36 | 1016.0 |
| 20260504170510 | 22 | 234 | 3.2 | 9.7 | 0.00 | 0.00 | 0.00 | 39 | 1016.2 |
| 20260504151007 | 19 | 196 | 1.6 | 11.3 | 0.00 | 0.00 | 0.00 | 41 | 1017.8 |
| 20260504150510 | 19 | 290 | 3.2 | 11.3 | 0.00 | 0.00 | 0.00 | 41 | 1017.8 |
| 20260504141013 | 17 | 116 | 1.6 | 6.4 | 0.00 | 0.00 | 0.00 | 55 | 1017.4 |
| 20260504140507 | 16 | 101 | 3.2 | 6.4 | 0.00 | 0.00 | 0.00 | 57 | 1017.4 |
| 20260504130511 | 13 | 114 | 0.0 | 3.2 | 0.00 | 0.00 | 0.00 | 66 | 1017.7 |
| 20260504110506 | 5 | 227 | 0.0 | 3.2 | 0.00 | 0.00 | 0.00 | 92 | 1017.2 |
| 20260504100503 | 5 | 227 | 0.0 | 3.2 | 0.00 | 0.00 | 0.00 | 90 | 1017.4 |
| 20260504081506 | 6 | 221 | 0.0 | 0.0 | 0.00 | 0.00 | 0.00 | 89 | 1017.1 |
| 20260504081006 | 6 | 221 | 0.0 | 0.0 | 0.00 | 0.00 | 0.00 | 89 | 1017.0 |
| 20260504080505 | 6 | 221 | 0.0 | 0.0 | 0.00 | 0.00 | 0.00 | 89 | 1017.0 |
| 20260504050513 | 8 | 221 | 0.0 | 0.0 | 0.00 | 0.00 | 0.00 | 79 | 1017.4 |
| 20260504045507 | 8 | 221 | 0.0 | 0.0 | 0.00 | 0.00 | 0.00 | 77 | 1017.4 |
| 20260504045009 | 8 | 221 | 0.0 | 0.0 | 0.00 | 0.00 | 0.00 | 77 | 1017.3 |
| 20260504044526 | 8 | 221 | 0.0 | 0.0 | 0.00 | 0.00 | 0.00 | 76 | 1017.3 |
| 20260504044010 | 8 | 221 | 0.0 | 0.0 | 0.00 | 0.00 | 0.00 | 74 | 1017.2 |
| 20260504043505 | 8 | 221 | 0.0 | 0.0 | 0.00 | 0.00 | 0.00 | 74 | 1017.2 |
| 20260504043013 | 8 | 221 | 0.0 | 0.0 | 0.00 | 0.00 | 0.00 | 74 | 1017.1 |
| 20260504042505 | 8 | 221 | 0.0 | 0.0 | 0.00 | 0.00 | 0.00 | 73 | 1017.0 |
| 20260504042005 | 8 | 221 | 0.0 | 3.2 | 0.00 | 0.00 | 0.00 | 73 | 1017.0 |
| 20260504041518 | 8 | 221 | 0.0 | 3.2 | 0.00 | 0.00 | 0.00 | 73 | 1017.0 |
| 20260504041007 | 8 | 221 | 0.0 | 1.6 | 0.00 | 0.00 | 0.00 | 73 | 1017.0 |
| 20260504040507 | 8 | 221 | 0.0 | 0.0 | 0.00 | 0.00 | 0.00 | 74 | 1017.0 |
| 20260504040037 | 8 | 221 | 0.0 | 0.0 | 0.00 | 0.00 | 0.00 | 73 | 1017.1 |
| 20260504035510 | 9 | 221 | 0.0 | 0.0 | 0.00 | 0.00 | 0.00 | 73 | 1017.2 |
| 20260504035008 | 9 | 221 | 0.0 | 3.2 | 0.00 | 0.00 | 0.00 | 73 | 1017.2 |
| 20260504034525 | 9 | 221 | 0.0 | 3.2 | 0.00 | 0.00 | 0.00 | 72 | 1017.1 |
| 20260504034009 | 9 | 221 | 0.0 | 3.2 | 0.00 | 0.00 | 0.00 | 72 | 1017.1 |
| 20260504033508 | 9 | 221 | 0.0 | 3.2 | 0.00 | 0.00 | 0.00 | 72 | 1017.1 |
| 20260504033026 | 9 | 221 | 0.0 | 3.2 | 0.00 | 0.00 | 0.00 | 71 | 1017.2 |
| 20260504032503 | 10 | 221 | 0.0 | 1.6 | 0.00 | 0.00 | 0.00 | 71 | 1017.2 |
| 20260504032005 | 10 | 221 | 0.0 | 0.0 | 0.00 | 0.00 | 0.00 | 70 | 1017.2 |
| 20260504031514 | 10 | 221 | 0.0 | 0.0 | 0.00 | 0.00 | 0.00 | 68 | 1017.3 |
| 20260504031004 | 10 | 221 | 0.0 | 3.2 | 0.00 | 0.00 | 0.00 | 68 | 1017.2 |
| 20260504030508 | 10 | 221 | 0.0 | 3.2 | 0.00 | 0.00 | 0.00 | 67 | 1017.2 |
| 20260504030020 | 10 | 221 | 0.0 | 3.2 | 0.00 | 0.00 | 0.00 | 66 | 1017.3 |
| 20260504025507 | 10 | 221 | 0.0 | 1.6 | 0.00 | 0.00 | 0.00 | 64 | 1017.3 |
| 20260504025009 | 10 | 221 | 0.0 | 0.0 | 0.00 | 0.00 | 0.00 | 64 | 1017.4 |
| 20260504024522 | 10 | 221 | 0.0 | 0.0 | 0.00 | 0.00 | 0.00 | 64 | 1017.3 |
| 20260504024008 | 10 | 221 | 0.0 | 0.0 | 0.00 | 0.00 | 0.00 | 63 | 1017.3 |
| 20260504023511 | 11 | 221 | 0.0 | 0.0 | 0.00 | 0.00 | 0.00 | 62 | 1017.3 |
| 20260504023026 | 11 | 221 | 0.0 | 0.0 | 0.00 | 0.00 | 0.00 | 61 | 1017.2 |
| 20260504022509 | 11 | 221 | 0.0 | 0.0 | 0.00 | 0.00 | 0.00 | 60 | 1017.2 |
| 20260504022009 | 11 | 221 | 0.0 | 0.0 | 0.00 | 0.00 | 0.00 | 59 | 1017.1 |
| 20260504021528 | 11 | 221 | 0.0 | 0.0 | 0.00 | 0.00 | 0.00 | 59 | 1017.1 |
| 20260504021005 | 11 | 221 | 0.0 | 3.2 | 0.00 | 0.00 | 0.00 | 58 | 1017.0 |
| 20260504020504 | 11 | 221 | 0.0 | 3.2 | 0.00 | 0.00 | 0.00 | 59 | 1017.0 |
| 20260504020014 | 11 | 221 | 0.0 | 0.0 | 0.00 | 0.00 | 0.00 | 58 | 1016.9 |
| 20260504015505 | 11 | 221 | 0.0 | 0.0 | 0.00 | 0.00 | 0.00 | 56 | 1016.8 |
| 20260504015012 | 12 | 221 | 0.0 | 0.0 | 0.00 | 0.00 | 0.00 | 56 | 1016.7 |
| 20260504014525 | 12 | 221 | 0.0 | 0.0 | 0.00 | 0.00 | 0.00 | 54 | 1016.7 |
| 20260504014006 | 12 | 221 | 0.0 | 0.0 | 0.00 | 0.00 | 0.00 | 55 | 1016.7 |
| 20260504013509 | 12 | 221 | 0.0 | 0.0 | 0.00 | 0.00 | 0.00 | 53 | 1016.5 |
| 20260504013025 | 12 | 221 | 0.0 | 0.0 | 0.00 | 0.00 | 0.00 | 53 | 1016.5 |
| 20260504012510 | 12 | 221 | 0.0 | 0.0 | 0.00 | 0.00 | 0.00 | 53 | 1016.4 |
| 20260504012008 | 13 | 221 | 0.0 | 0.0 | 0.00 | 0.00 | 0.00 | 51 | 1016.4 |
| 20260504011525 | 13 | 221 | 0.0 | 0.0 | 0.00 | 0.00 | 0.00 | 51 | 1016.4 |
| 20260504011007 | 13 | 221 | 0.0 | 0.0 | 0.00 | 0.00 | 0.00 | 49 | 1016.4 |
| 20260504010514 | 13 | 221 | 0.0 | 0.0 | 0.00 | 0.00 | 0.00 | 48 | 1016.4 |
| 20260504010012 | 13 | 221 | 0.0 | 0.0 | 0.00 | 0.00 | 0.00 | 47 | 1016.4 |
| 20260504005504 | 14 | 221 | 0.0 | 0.0 | 0.00 | 0.00 | 0.00 | 46 | 1016.4 |
| 20260504005005 | 14 | 221 | 0.0 | 0.0 | 0.00 | 0.00 | 0.00 | 45 | 1016.3 |
| 20260504004521 | 15 | 221 | 0.0 | 0.0 | 0.00 | 0.00 | 0.00 | 44 | 1016.2 |
| 20260504004005 | 15 | 221 | 0.0 | 0.0 | 0.00 | 0.00 | 0.00 | 43 | 1016.2 |
| 20260504003510 | 15 | 221 | 0.0 | 0.0 | 0.00 | 0.00 | 0.00 | 42 | 1016.2 |
| 20260504003021 | 15 | 221 | 0.0 | 0.0 | 0.00 | 0.00 | 0.00 | 41 | 1016.1 |
| 20260504002506 | 15 | 221 | 0.0 | 0.0 | 0.00 | 0.00 | 0.00 | 41 | 1016.1 |
| 20260504002009 | 16 | 221 | 0.0 | 0.0 | 0.00 | 0.00 | 0.00 | 40 | 1016.1 |
| 20260504001524 | 16 | 221 | 0.0 | 0.0 | 0.00 | 0.00 | 0.00 | 39 | 1016.1 |
| 20260504001011 | 16 | 221 | 0.0 | 0.0 | 0.00 | 0.00 | 0.00 | 37 | 1016.0 |
| 20260504000507 | 16 | 221 | 0.0 | 0.0 | 0.00 | 0.00 | 0.00 | 37 | 1015.8 |
| 20260504000028 | 17 | 221 | 0.0 | 0.0 | 0.00 | 0.00 | 0.00 | 36 | 1015.8 |
| 20260503235506 | 17 | 221 | 0.0 | 0.0 | 0.00 | 0.00 | 0.00 | 36 | 1015.8 |
| 20260503235007 | 17 | 221 | 0.0 | 0.0 | 0.00 | 0.00 | 0.00 | 35 | 1015.8 |
| 20260503234506 | 17 | 221 | 0.0 | 0.0 | 0.00 | 0.00 | 0.00 | 34 | 1015.8 |
| 20260503234003 | 17 | 221 | 0.0 | 3.2 | 0.00 | 0.00 | 0.00 | 33 | 1015.8 |
| 20260503233503 | 17 | 221 | 0.0 | 3.2 | 0.00 | 0.00 | 0.00 | 32 | 1015.8 |
| 20260503233004 | 18 | 226 | 0.0 | 3.2 | 0.00 | 0.00 | 0.00 | 31 | 1016.0 |
| 20260503232503 | 18 | 240 | 0.0 | 3.2 | 0.00 | 0.00 | 0.00 | 31 | 1016.0 |
| 20260503232002 | 18 | 243 | 0.0 | 3.2 | 0.00 | 0.00 | 0.00 | 30 | 1015.9 |
| 20260503231506 | 18 | 248 | 1.6 | 4.8 | 0.00 | 0.00 | 0.00 | 30 | 1015.9 |
| 20260503231003 | 18 | 269 | 0.0 | 4.8 | 0.00 | 0.00 | 0.00 | 30 | 1015.9 |
| 20260503230504 | 18 | 238 | 0.0 | 3.2 | 0.00 | 0.00 | 0.00 | 30 | 1015.9 |
| 20260503230006 | 18 | 245 | 0.0 | 4.8 | 0.00 | 0.00 | 0.00 | 29 | 1016.0 |
| 20260503225503 | 18 | 274 | 1.6 | 4.8 | 0.00 | 0.00 | 0.00 | 29 | 1016.0 |
| 20260503225004 | 18 | 208 | 1.6 | 4.8 | 0.00 | 0.00 | 0.00 | 29 | 1016.1 |
| 20260503224507 | 18 | 196 | 0.0 | 9.7 | 0.00 | 0.00 | 0.00 | 30 | 1016.0 |
| 20260503224003 | 18 | 196 | 1.6 | 9.7 | 0.00 | 0.00 | 0.00 | 29 | 1016.0 |
| 20260503223503 | 18 | 121 | 3.2 | 6.4 | 0.00 | 0.00 | 0.00 | 29 | 1016.1 |
| 20260503223006 | 18 | 260 | 0.0 | 4.8 | 0.00 | 0.00 | 0.00 | 28 | 1016.2 |
| 20260503222503 | 18 | 236 | 1.6 | 9.7 | 0.00 | 0.00 | 0.00 | 29 | 1016.2 |
| 20260503222003 | 18 | 263 | 0.0 | 9.7 | 0.00 | 0.00 | 0.00 | 31 | 1016.1 |
| 20260503221504 | 18 | 238 | 1.6 | 4.8 | 0.00 | 0.00 | 0.00 | 29 | 1016.1 |
| 20260503221003 | 18 | 200 | 1.6 | 6.4 | 0.00 | 0.00 | 0.00 | 30 | 1016.1 |
| 20260503220504 | 18 | 218 | 1.6 | 8.0 | 0.00 | 0.00 | 0.00 | 30 | 1016.3 |
| 20260503220006 | 18 | 240 | 1.6 | 6.4 | 0.00 | 0.00 | 0.00 | 28 | 1016.3 |
| 20260503215504 | 18 | 255 | 1.6 | 8.0 | 0.00 | 0.00 | 0.00 | 29 | 1016.4 |
| 20260503215002 | 18 | 290 | 3.2 | 8.0 | 0.00 | 0.00 | 0.00 | 30 | 1016.5 |
| 20260503214504 | 19 | 209 | 3.2 | 8.0 | 0.00 | 0.00 | 0.00 | 28 | 1016.5 |
| 20260503214002 | 19 | 277 | 3.2 | 11.3 | 0.00 | 0.00 | 0.00 | 29 | 1016.5 |
| 20260503213502 | 19 | 186 | 1.6 | 11.3 | 0.00 | 0.00 | 0.00 | 29 | 1016.6 |
| 20260503213004 | 19 | 244 | 3.2 | 11.3 | 0.00 | 0.00 | 0.00 | 29 | 1016.7 |
| 20260503212503 | 19 | 196 | 3.2 | 16.1 | 0.00 | 0.00 | 0.00 | 28 | 1016.9 |
| 20260503212002 | 20 | 140 | 3.2 | 16.1 | 0.00 | 0.00 | 0.00 | 28 | 1016.8 |
| 20260503211505 | 20 | 245 | 1.6 | 12.9 | 0.00 | 0.00 | 0.00 | 29 | 1016.8 |
| 20260503211007 | 19 | 209 | 3.2 | 12.9 | 0.00 | 0.00 | 0.00 | 27 | 1016.8 |
| 20260503210503 | 20 | 260 | 1.6 | 9.7 | 0.00 | 0.00 | 0.00 | 29 | 1016.9 |
| 20260503210005 | 20 | 287 | 4.8 | 9.7 | 0.00 | 0.00 | 0.00 | 27 | 1016.9 |
| 20260503205507 | 20 | 302 | 1.6 | 3.2 | 0.00 | 0.00 | 0.00 | 28 | 1016.9 |
| 20260503205004 | 19 | 119 | 1.6 | 4.8 | 0.00 | 0.00 | 0.00 | 28 | 1016.9 |
| 20260503204529 | 18 | 163 | 0.0 | 11.3 | 0.00 | 0.00 | 0.00 | 28 | 1017.0 |
| 20260503204016 | 18 | 175 | 3.2 | 11.3 | 0.00 | 0.00 | 0.00 | 27 | 1017.2 |
| 20260503203507 | 19 | 274 | 3.2 | 11.3 | 0.00 | 0.00 | 0.00 | 26 | 1017.2 |
| 20260503203028 | 18 | 105 | 0.0 | 4.8 | 0.00 | 0.00 | 0.00 | 26 | 1017.2 |
| 20260503202510 | 18 | 128 | 3.2 | 11.3 | 0.00 | 0.00 | 0.00 | 26 | 1017.3 |
| 20260503202013 | 18 | 302 | 3.2 | 11.3 | 0.00 | 0.00 | 0.00 | 25 | 1017.4 |
| 20260503201521 | 18 | 169 | 1.6 | 6.4 | 0.00 | 0.00 | 0.00 | 28 | 1017.4 |
| 20260503201006 | 18 | 260 | 1.6 | 9.7 | 0.00 | 0.00 | 0.00 | 29 | 1017.6 |
| 20260503200507 | 18 | 308 | 4.8 | 11.3 | 0.00 | 0.00 | 0.00 | 29 | 1017.5 |
| 20260503200023 | 18 | 211 | 3.2 | 11.3 | 0.00 | 0.00 | 0.00 | 27 | 1017.6 |
| 20260503195507 | 18 | 200 | 3.2 | 9.7 | 0.00 | 0.00 | 0.00 | 27 | 1017.7 |
| 20260503195010 | 18 | 254 | 3.2 | 11.3 | 0.00 | 0.00 | 0.00 | 28 | 1017.8 |
| 20260503194524 | 18 | 213 | 1.6 | 11.3 | 0.00 | 0.00 | 0.00 | 25 | 1017.8 |
| 20260503194008 | 18 | 275 | 1.6 | 9.7 | 0.00 | 0.00 | 0.00 | 25 | 1017.9 |